Location: Gerlach
(40.6516°N, 119.3568°W)
Time: 18:36:15
(UTC-08:00)

NANOSAT C BR1 - Visible Passes

Search period start: 26 February 2024 00:00
Search period end: 07 March 2024 00:00
Orbit: 558 x 573 km, 98.1° (Epoch: 26 February)

Date Brightness Start Highest point End Pass type
(mag) Time Alt. Az. Time Alt. Az. Time Alt. Az.
02 Mar ? 04:05:43 10° N 04:05:46 10° N 04:05:46 10° N visible
03 Mar ? 04:05:59 10° N 04:06:12 11° N 04:06:12 11° N visible
04 Mar ? 04:06:13 10° N 04:06:36 12° N 04:06:36 12° N visible
05 Mar ? 04:06:26 10° N 04:06:59 13° N 04:06:59 13° N visible
06 Mar ? 04:06:38 10° N 04:07:21 15° N 04:07:21 15° N visible
